Regional Weather Roundup
Issued by NWS

Home | Current Version | Previous Version | Graphics & Text | Print | Product List | Glossary On
Versions: 1 2 3 4 5 6 7 8 9 10 11 12 13 14 15 16 17 18 19 20 21 22 23 24 25 26 27 28 29 30 31 32 33 34 35 36 37 38 39 40 41 42 43 44 45 46 47 48 49 50
000
ASUS44 KMEG 302200
RWRTN
TENNESSEE HOURLY STATE WEATHER ROUNDUP
NATIONAL WEATHER SERVICE MEMPHIS TN
500 PM CDT MON MAY 30 2016

TNZ002-004-019-021-049-052-054-088>092-302300-
WEST TENNESSEE

CITY           SKY/WX    TMP DP  RH WIND       PRES   REMARKS
MEMPHIS INTL   CLOUDY    87  62  43 CALM      29.96F
NWS MEMPHIS      N/A     87 N/A N/A MISG        N/A
JACKSON        MOSUNNY   88  57  34 VRB3      29.97F
DYERSBURG      SUNNY     86  59  39 NE7       29.96F
UNION CITY     SUNNY     86  61  42 E6        29.97F
PARIS          SUNNY     82  61  47 CALM      29.99F
LEXINGTON      SUNNY     84  57  39 NE3       29.98F
$$

TNZ008-025-027-028-033-062-065-066-302300-
NORTH MIDDLE TENNESSEE

CITY           SKY/WX    TMP DP  RH WIND       PRES   REMARKS
NASHVILLE      MOSUNNY   89  55  31 NE9       29.98F
CLARKSVILLE    SUNNY     86  57  37 N8        29.98F
COOKEVILLE     SUNNY     86  63  45 N7        29.99S
CROSSVILLE     MOSUNNY   82  56  40 N9        30.03F
$$

TNZ061-075-076-078-094-096-097-302300-
SOUTH MIDDLE TENNESSEE

CITY           SKY/WX    TMP DP  RH WIND       PRES   REMARKS
TULLAHOMA      SUNNY     84  55  37 N10       29.99F
WINCHESTER     SUNNY     88  57  35 N7        29.97F
MCMINNVILLE    SUNNY     86  61  42 N10       29.99F
COLUMBIA       SUNNY     88  57  35 N5        29.96F
SHELBYVILLE    SUNNY     90  55  31 N7        29.98F
$$

TNZ017-018-042-046-047-302300-
NORTHEAST TENNESSEE

CITY           SKY/WX    TMP DP  RH WIND       PRES   REMARKS
TRI CITIES     CLOUDY    76  61  59 NW6       30.00R
$$

TNZ012-013-036-069-073-074-302300-
CENTRAL EAST TENNESSEE

CITY           SKY/WX    TMP DP  RH WIND       PRES   REMARKS
KNOXVILLE      LGT RAIN  78  64  61 N15       29.96S
OAK RIDGE      SUNNY     89  59  36 VRB5      29.97F
GATLINBURG     MOSUNNY   84  61  45 NE17      29.96S
$$

TNZ083-085-099-302300-
SOUTHEAST TENNESSEE

CITY           SKY/WX    TMP DP  RH WIND       PRES   REMARKS
CHATTANOOGA    MOSUNNY   89  60  37 N9        29.94S
$$

SKY/WX REPORTED AS FAIR MEANS FEW OR NO CLOUDS BELOW
12 THOUSAND FEET.





USA.gov is the U.S. government's official web portal to all federal, state and local government web resources and services.